Location: Unspecified
(48.2082°N, 0.0000°E)
Time: 19:43:03
(UTC+00:00)

Altair - Pass Details

Date: 18 June 2019
Orbit: 1501 x 1683 km, 47.2° (Epoch: 21 August)

Event Time Altitude Azimuth Distance (km) Brightness Sun altitude
Rises 00:39:14 0° 276° (W) 4,820 10.1 -17.9°
Reaches altitude 10° 00:42:18 10° 276° (W) 3,857 9.5 -17.8°
Maximum altitude 00:52:15 82° 190° (S) 1,680 7.6 -17.5°
Drops below altitude 10° 01:02:25 10° 105° (ESE) 3,944 9.6 -17.1°
Sets 01:05:36 0° 105° (ESE) 4,933 10.2 -16.9°
